{"data":{"norad_id":65989,"intl_designator":"2025-230R","name":"SDA_1679","alt_names":[],"object_type":"PAYLOAD","status":"ACTIVE","operator":null,"country":"US","launch_date":"2025-10-15","launch_site_code":"AFWTR","launch_vehicle":null,"mission":null,"orbit_class":"UNKNOWN","rcs_meters":null,"size_class":null,"mass_kg":null,"dimensions":null,"purposes":[],"wikipedia_slug":null,"has_3d_model":false,"image_url":null,"decayed_at":null,"tle_current":{"epoch":"2026-05-24T22:56:37.772736Z","epoch_age_seconds":75524,"freshness":"FRESH","line1":"1 65989U 25230R   26144.95599274  .00000134  00000+0  10848-3 0  9997","line2":"2 65989  81.3037 233.1567 0001969 256.7377 103.3560 13.84856189 30600","mean_motion":13.84856189,"eccentricity":0.0001969,"inclination_deg":81.3037,"raan_deg":233.1567,"arg_perigee_deg":256.7377,"mean_anomaly_deg":103.356,"bstar":0.00010848,"rev_number":3060,"period_min":103.98191606017,"perigee_km":945.27053968193,"apogee_km":948.15506553419,"semimajor_km":7324.8498026081,"source":"CELESTRAK","updated_at":"2026-05-25T13:38:05.880832Z"}}}